www.pogodaiklimat.ru

Погода и климат >> Архив погоды >> Россия >> Ханты-Мансийский АО >> Нефтеюганск


ПОГОДА в Нефтеюганске

АРХИВ ПОГОДЫ в Нефтеюганске

Время (UTC), дата Ветер
(напр.,м/с)
 
Видим.   Явления Облачность Т
(С)
Тd
(С)
f
(%)
Тe
(С)
Тes
(С)
Комфортность P
(гПа)
Po
(гПа)
Тmin
(С)
Tmax
(С)
R
(мм)
R24
(мм)
S
(см)
21 18.04 ЮЗ 4 20 км 10/0
[As op]
-3.2 -11.3 54 -9 -9 по сезону 1011.4 1006.6
00 19.04 ЮЗ 5 50 км 10/0
[As op]
-2.7 -10.7 54 -9 -9 по сезону 1008.9 1004.1
03 19.04 ЮЗ 4
{10}
50 км 10/0
[As op]
-1.3 -9.7 53 -6 -6 по сезону 1006.7 1002.0 -5.9 29
06 19.04 ЮЗ 7
{12}
50 км 10 баллов +1.3 -7.0 54 -5 -5 по сезону 1005.0 1000.0
09 19.04 ЮЗ 5
{12}
50 км 10 баллов +4.0 -8.1 41 -0 -0 по сезону 1003.6 998.7
12 19.04 З 6
{14}
50 км 10 баллов +3.0 -5.2 55 -2 -2 по сезону 1003.7 998.7
15 19.04 ЮЗ 3
{11}
50 км {ливн. осадки} 10/5 600 м
[Cb cap Ac As]
+1.0 -1.9 81 -3 -3 по сезону 1003.1 998.4 +4.1 0.0
18 19.04 СЗ 1 2000 м ливневой снег 10/5 600 м
[Cb cap Ac As]
-0.4 -1.4 93 -3 -3 по сезону 1002.6 997.9
21 19.04 Ю 2 4000 м слабый ливневой снег 10/5 600 м
[Cb cap Ac As]
-0.8 -1.7 94 -5 -5 по сезону 1000.5 995.9
00 20.04 ЮВ 2 2000 м снег 10 баллов -1.2 -1.9 95 -5 -5 по сезону 999.7 994.7
03 20.04 ЮВ 1
{7}
1000 м снег 10/10 300 м
[Frnb Ns]
-0.3 -1.2 94 -2 -2 по сезону 996.6 992.0 -1.2 8 39
06 20.04 З 3 4000 м слабый снег 10/6 300 м
[Frnb As op]
+1.4 -0.8 85 -3 -2 по сезону 997.1 992.4
09 20.04 С 4 50 км {ливн. осадки, снег} 9/4 300 м
[Cb cap Ac trans]
+0.9 -3.1 75 -4 -2 по сезону 998.6 994.0
12 20.04 СЗ 3 50 км 9 баллов +0.8 -5.0 65 -3 -3 по сезону 1001.0 996.0
15 20.04 С 2
{6}
50 км 9 баллов -1.1 -5.0 75 -5 -5 по сезону 1001.0 996.0 +1.4 1
18 20.04 С 2 20 км 10/0
[Ac und]
-2.9 -7.4 71 -7 -7 по сезону 1000.3 995.5
21 20.04 С 1 20 км 9/0
[Ac trans]
-4.5 -8.8 72 -7 -7 по сезону 1000.3 995.5
00 21.04 СЗ 1 50 км 9/0
[Ac trans]
-9.0 -11.3 83 -11 -11 по сезону 1001.0 996.1
03 21.04 С 2
{4}
50 км 6/3 600 м
[Cu hum Ci fib]
-4.7 -11.7 58 -8 -6 по сезону 1002.2 997.4 -9.8 32
06 21.04 С 2 50 км 3/0
[Ci sp]
-3.2 -12.9 47 -7 +2 прохладно 1003.3 998.6
09 21.04 С 3 50 км 3/1 600 м
[Cu hum Ci fib]
-2.3 -14.7 38 -6 -0 по сезону 1004.5 999.7
12 21.04 С 2 50 км 4/0
[Ci fib]
-2.3 -15.7 35 -5 -3 по сезону 1005.4 1000.7
15 21.04 СВ 1
{5}
50 км 4 балла -5.9 -15.1 48 -8 -8 прохладно 1007.8 1002.7 -1.8
18 21.04 В 2 20 км ясно -10.4 -14.8 70 -15 -15 очень
холодно
1006.3 1001.4
21 21.04 В 2 20 км ясно -11.3 -15.3 72 -16 -16 холодно 1006.6 1001.7
00 22.04 В 2 50 км 9/9 600 м
[Sc]
-11.4 -15.2 73 -16 -16 холодно 1007.1 1002.2
03 22.04 В 1
{3}
50 км 6/3 600 м
[Sc Ac trans Ci fib]
-5.1 -13.9 50 -7 -4 по сезону 1007.9 1003.1 -13.6 31
06 22.04 ЮВ 2 50 км 3/0
[Ci fib]
-1.0 -12.8 40 -4 +5 по сезону 1008.6 1003.9
09 22.04 СЗ 3 50 км 4/3 600 м
[Cu hum Ci fib]
-0.1 -14.2 34 -4 +1 по сезону 1010.0 1005.2
12 22.04 З 2 50 км 10/0
[Cs]
-0.1 -14.5 33 -3 -1 по сезону 1011.5 1006.8
15 22.04 Ю 1
{6}
50 км 10 баллов -2.4 -11.4 50 -4 -4 по сезону 1014.4 1009.3 +1.0
18 22.04 В 1 20 км 10/0
[As op]
-3.7 -10.1 61 -6 -6 по сезону 1014.7 1009.8
21 22.04 В 2 20 км 10/0
[As op]
-5.1 -11.6 60 -9 -9 по сезону 1015.3 1010.4
00 23.04 В 3 50 км 10/0
[As op]
-4.5 -9.4 69 -10 -10 по сезону 1015.2 1010.3
03 23.04 В 3
{6}
50 км {ливн. осадки} 10/4 600 м
[Cb cap As op]
-2.5 -8.8 62 -7 -7 по сезону 1015.2 1010.4 -6.1 0.0 31
06 23.04 В 5 50 км {ливн. осадки} 8/0
[Cc]
+1.1 -6.7 56 -4 0 по сезону 1014.4 1009.7
09 23.04 В 6
{10}
50 км 5/0
[Ci sp]
+3.4 -8.6 41 -1 +2 по сезону 1012.8 1008.1
12 23.04 В 5
{10}
50 км 10 баллов +3.6 -8.4 41 -1 -1 по сезону 1013.0 1008.0
15 23.04 В 5
{10}
50 км 10 баллов -0.1 -6.7 61 -6 -6 по сезону 1013.1 1008.0 +4.0
18 23.04 В 5 20 км 8/0
[Ac trans Ci fib]
-1.3 -7.8 61 -7 -7 по сезону 1011.1 1006.3
21 23.04 ЮВ 5 20 км 8/0
[Ac trans]
-0.9 -7.7 60 -7 -7 по сезону 1009.3 1004.6
00 24.04 ЮВ 6 50 км 10/0
[As op]
-0.6 -5.9 67 -7 -7 по сезону 1007.0 1002.3
03 24.04 ЮВ 7
{10}
10 км слабый ливневой дождь 10/5 600 м
[Cb cap Ac und]
+0.6 -2.9 77 -6 -6 по сезону 1004.1 999.4 -1.4 0.3 30
06 24.04 ЮВ 7
{11}
50 км 10 баллов +3.6 -0.6 74 -2 -2 по сезону 1002.2 997.3
09 24.04 ЮВ 5
{11}
4000 м слабый ливневой дождь 10 баллов +2.9 +1.4 90 -3 -3 по сезону 1000.9 996.0
12 24.04 Ю 3 50 км 9 баллов +5.8 +2.6 80 +3 +3 тепло 999.6 994.7
15 24.04 В 2
{11}
50 км {ливн. осадки} 8/5 600 м
[Cb cap Ac trans]
+3.0 +1.9 92 -0 -0 по сезону 996.9 992.3 +5.8 3
18 24.04 Ю 2 20 км {ливн. осадки} 4/4 600 м
[Sc]
+3.1 +2.2 94 -0 -0 тепло 996.7 992.1
21 24.04 ЮЗ 3 20 км 10/0
[Ac und]
+3.7 +2.2 90 -0 -0 тепло 995.9 991.3
00 25.04 ЮЗ 3 50 км 10/10 300 м
[St]
+1.1 -0.5 89 -3 -3 по сезону 996.3 991.7
03 25.04 ЮЗ 2
{7}
4000 м слабая морось 10/10 100 м
[St]
+0.1 -0.7 94 -4 -4 по сезону 996.5 991.8 +0.1 2 27
06 25.04 З 4 50 км 10 баллов +0.2 -2.7 81 -5 -5 по сезону 999.7 994.7 0.0
09 25.04 З 5 10 км слабый ливневой снег 10/10 300 м
[Cb cap]
-1.0 -3.8 81 -7 -7 прохладно 1000.2 995.5
12 25.04 З 6 4000 м слабый ливневой снег 10 баллов -3.0 -5.2 85 -10 -10 очень
холодно
1003.8 998.7
15 25.04 З 5
{9}
2000 м ливневой снег 10/10 300 м
[Cb cap]
-3.2 -4.3 92 -10 -10 холодно 1002.7 998.0 +0.6 0.9
18 25.04 СЗ 6
{10}
4000 м слабый ливневой снег 10 баллов -2.8 -4.4 89 -10 -10 прохладно 1005.1 1000.0

 

Местоположение метеостанции Нефтеюганск (Ханты-Мансийский АО, Россия): широта 61.07 долгота 72.62 высота над уровнем моря 40 м.

В архиве по умолчанию представлена погода в Нефтеюганске за последнюю неделю. Архивные данные за месяц целиком и за предыдущие месяцы, начиная с января 2011 года, Вы можете получить, выбрав интересующий диапазон дат из раскрывающегося списка и нажав кнопку "Ввод!".


*Определитесь, кто Вы:
робот инопланетянин человек

Внимание! Время в таблицах - всемирное. Для получения местного времени необходимо прибавить поправку, которая в Нефтеюганске равна 5 ч.

Смотрите также архив погоды в соседних городах и на ближайших метеорологических станциях:

Погода в Сургуте (Ханты-Мансийский АО, Россия) (52 км)
Погода в Сытомино (Ханты-Мансийский АО, Россия) (75 км)
Погода в Угуте (Ханты-Мансийский АО, Россия) (99 км)
Погода в Салыме (Ханты-Мансийский АО, Россия) (127 км)
Погода в Когалыме (Ханты-Мансийский АО, Россия) (164 км)
Погода в Таурово (Ханты-Мансийский АО, Россия) (170 км)
Погода в Ханты-Мансийске (Ханты-Мансийский АО, Россия) (188 км)
Погода в Нижнесортымском (Ханты-Мансийский АО, Россия) (193 км)
Погода в Алтае (Ханты-Мансийский АО, Россия) (215 км)
Погода в Нижневартовске (Ханты-Мансийский АО, Россия) (215 км)

Пояснения к столбцам:

Ветер - указаны скорость ветра в м/с - средняя за 10 мин, порывы в срок и между сроками (в фигурных скобках) и направление, откуда дует ветер: С - северный, СВ - северо-восточный, В - восточный, ЮВ - юго-восточный, Ю - южный, ЮЗ - юго-западный, З - западный, СЗ - северо-западный.
Видимость - горизонтальная дальность видимости в метрах или километрах. При видимости от 1 до 10 км при отсутствии осадков обычно наблюдается дымка, при ухудшении видимости до 1 км и менее - туман. В сухую погоду видимость может ухудшаться дымом, пылью или мглою.
Явления - указаны атмосферные явления, наблюдавшиеся в срок или в последний час перед сроком; фигурными скобками обозначены явления, наблюдавшиеся между сроками (за 1-3 часа до срока); квадратными скобками обозначены град или гололедные отложения с указанием их диаметра в мм.
Облачность - указаны через наклонную черту общая и нижняя облачность в баллах и высота нижней границы облаков в метрах; квадратными скобками обозначены формы облаков: Ci - перистые, Cs - перисто-слоистые, Cc - перисто-кучевые, Ac - высококучевые, As - высокослоистые, Sc - слоисто-кучевые, Ns - слоисто-дождевые, Cu - кучевые, Cb - кучево-дождевые. Подробнее классификацию облаков см. в Атласе облаков (PDF).
T - Температура воздуха - температура, измеренная на высоте 2 м над землей.
Td - Температура точки росы - температура, при понижении до которой содержащийся в воздухе водяной пар достигнет насыщения.
f - Относительная влажность воздуха - влажноcть воздуха, измеренная на высоте 2 м над землей.
Te - Эффективная температура - температура, которую ощущает одетый по сезону человек в тени. Характеристика душности погоды. При расчете учитывается влияние влажности воздуха и скорости ветра на теплоощущения человека.
Tes - Эффективная температура на солнце - температура, которую ощущает человек, с поправкой на солнечный нагрев. Характеристика знойности погоды. Зависит от высоты солнца над горизонтом, облачности и скорости ветра. Ночью, в пасмурную погоду, а также при ветре 12 м/с и более поправка равна нулю.
P - Атмосферное давление - приведенное к уровню моря атмосферное давление.
Po - Атмосферное давление - измеренное на уровне метеостанции атмосферное давление.
Tmin - Минимальная температура - минимум температуры воздуха на высоте 2 м над землей.
Tmax - Максимальная температура - максимум температуры воздуха на высоте 2 м над землей.
R - Количество осадков - Количество выпавших осадков за период времени, мм. При наведении курсора мыши на число - период времени, за который выпало указанное количество осадков.
R24 - Количество осадков - Количество выпавших осадков за 24 часа, мм.
S - Снежный покров - Высота снежного покрова, см. При наведении курсора мыши на число - состояние снежного покрова и степень покрытия местности в баллах.